Location: *
(40.7873°S, 98.7174°E)
Time: 10:48:02
(UTC+00:00)

ATLAS 2AS CENTAUR R/B - Pass Details

Date: 24 May 2022
Orbit: 973 x 1238 km, 63.7° (Epoch: 28 June)

Event Time Altitude Azimuth Distance (km) Brightness Sun altitude
Rises 10:44:21 0° 211° (SSW) 3,871 5.8 -6.7°
Reaches altitude 10° 10:47:06 10° 204° (SSW) 2,950 5.1 -7.2°
Maximum altitude 10:53:49 44° 133° (SE) 1,526 3.1 -8.4°
Drops below altitude 10° 11:00:52 10° 61° (ENE) 3,110 4.7 -9.6°
Sets 11:03:50 0° 55° (NE) 4,099 5.4 -10.1°
